This is the latest recevied weather packets stored in our database for station/object KB0BS-13. If no packets are shown the sender has not sent any weather packets the latest 10 day(s).
| Time | Temp. | Humidity | Pressure | Rain* | Wind** | Luminosity | Snow |
|---|---|---|---|---|---|---|---|
| 1777298024 | 10.56° C | 74% | 1021.1 hPa | 0 mm | - | 390 W/m² | - |
| 1777297719 | 10° C | 74% | 1021.1 hPa | 0 mm | - | 370 W/m² | - |
| 1777297418 | 9.44° C | 76% | 1021.3 hPa | 0 mm | - | 351 W/m² | - |
| 1777297114 | 8.89° C | 77% | 1021.3 hPa | 0 mm | - | 273 W/m² | - |
| 1777296812 | 8.33° C | 77% | 1021.1 hPa | 0 mm | - | 202 W/m² | - |
| 1777296507 | 8.33° C | 77% | 1021.3 hPa | 0 mm | - | 173 W/m² | - |
| 1777296203 | 7.78° C | 79% | 1021.2 hPa | 0 mm | - | 186 W/m² | - |
| 1777295899 | 7.78° C | 78% | 1021.2 hPa | 0 mm | - | 162 W/m² | - |
| 1777295597 | 7.78° C | 79% | 1021.1 hPa | 0 mm | - | 238 W/m² | - |
| 1777295294 | 7.78° C | 80% | 1020.9 hPa | 0 mm | - | 296 W/m² | - |
| 1777294992 | 7.78° C | 78% | 1021.1 hPa | 0 mm | - | 305 W/m² | - |
| 1777294688 | 7.22° C | 78% | 1020.9 hPa | 0 mm | - | 246 W/m² | - |
| 1777294383 | 7.22° C | 79% | 1021 hPa | 0 mm | - | 270 W/m² | - |
| 1777294080 | 6.67° C | 83% | 1021 hPa | 0 mm | - | 255 W/m² | - |
| 1777293777 | 6.11° C | 83% | 1021.2 hPa | 0 mm | - | 222 W/m² | - |
| 1777293472 | 5.56° C | 83% | 1021.2 hPa | 0 mm | - | 180 W/m² | - |
| 1777293168 | 6.11° C | 82% | 1021.2 hPa | 0 mm | - | 205 W/m² | - |
| 1777292867 | 5.56° C | 84% | 1020.9 hPa | 0 mm | - | 231 W/m² | - |
| 1777292564 | 5° C | 85% | 1021 hPa | 0 mm | - | 217 W/m² | - |
| 1777292259 | 5° C | 87% | 1020.9 hPa | 0 mm | - | 189 W/m² | - |
| 1777291956 | 4.44° C | 88% | 1021 hPa | 0 mm | - | 175 W/m² | - |
| 1777291653 | 3.89° C | 88% | 1021 hPa | 0 mm | - | 141 W/m² | - |
| 1777291350 | 3.33° C | 89% | 1020.8 hPa | 0 mm | - | 62 W/m² | - |
| 1777291046 | 3.33° C | 89% | 1021 hPa | 0 mm | - | 50 W/m² | - |
| 1777290743 | 3.89° C | 88% | 1020.9 hPa | 0 mm | - | 55 W/m² | - |
* Rain latest hour (hover to see other rain measurements)
** Current wind speed in m/s (hover to see current wind gust speed)